SCP
0 0 0 0 0 0 0 0 0 0 0 0 0 0 0 0 0 0 0 0 0 1 1 1 0 0 0 0 0 0 0 0 0 0 0 0 1 1 1 1 0 0 0
0 0 0 0 0 0 0 0 0 0 0 0 0 0 0 0 0 0 0 0 0 0 0 0 0 0 0 0 0 0 0 0 0 0 0 0 0 0 1 1 1 0 0
0 0 0 0 0 0 0 0 0 0 0 0 0 0 -0 0 0 0 0 0 0 0 0 0 0 0 0 0 0 0 0 0 0 0 0 0 0 0 1 0 0 0 0
0 0 0 0 0 0 0 0 0 0 -0 -0 -0 -0 -0 -0 0 0 0 0 0 0 0 0 0 0 0 0 0 0 0 0 0 0 0 0 0 0 0 0 0 0 0
0 0 0 0 0 0 0 0 0 0 0 -0 -0 -0 -0 -0 -0 0 0 0 0 0 0 0 0 0 0 0 0 0 0 0 0 0 0 0 0 0 0 0 0 0 0
0 0 0 0 0 0 0 0 0 0 -0 -0 -0 -0 -0 -0 0 0 0 0 0 0 0 0 0 0 0 0 0 0 0 0 0 0 -0 0 0 0 0 0 0 0 0
0 0 0 0 0 0 0 0 0 0 -0 -0 -0 -0 -0 -0 -0 0 0 0 0 0 0 0 0 0 0 0 -0 0 0 -0 -0 0 -0 0 0 0 0 0 0 0 0
0 0 0 0 0 0 0 0 0 0 0 0 -0 -0 -0 0 0 0 0 0 0 0 0 0 0 0 0 0 -0 0 -0 -0 -0 -0 0 0 0 0 0 0 0 0 0
0 0 0 0 0 -0 0 0 0 0 -0 0 0 -0 0 0 0 0 0 0 0 0 0 0 0 0 0 0 -0 0 -0 -0 -0 0 0 0 0 0 0 0 0 0 0
0 0 0 0 0 0 0 0 0 0 0 -0 0 -0 -0 0 -0 -0 0 0 0 0 -0 0 0 0 0 0 -0 -0 -0 -0 -0 0 0 0 0 0 0 0 0 0 0
0 0 0 0 0 0 0 0 0 0 0 0 0 0 0 0 0 -0 -0 0 0 0 0 0 0 0 0 0 0 0 -0 -0 0 0 0 -0 -0 -0 0 -0 0 0 0
0 0 0 0 0 0 -0 0 0 0 0 0 0 0 0 0 0 0 0 0 0 0 0 0 0 0 0 0 0 0 0 0 0 0 0 -0 -0 -0 -0 -0 -0 -0 -0
0 0 0 0 0 0 0 0 0 0 0 0 0 0 0 0 0 0 0 0 0 0 0 0 0 0 0 0 0 0 0 0 0 0 0 0 0 0 0 -0 -0 -0 -0
0 0 0 0 0 0 0 0 0 0 0 0 0 0 0 0 0 0 0 0 0 0 0 0 0 0 0 0 -0 0 0 0 0 0 0 0 0 0 0 0 -0 -0 0
0 0 0 0 0 0 0 0 0 0 0 0 0 0 0 0 0 0 0 0 0 0 0 0 0 0 0 0 0 0 0 0 0 0 0 0 0 0 0 0 0 0 0
-0 -0 0 0 0 0 0 0 0 0 0 0 0 0 0 0 0 0 0 0 0 0 0 0 0 0 0 0 0 0 0 0 0 0 0 0 0 0 0 0 0 0 0
0 -0 -0 -0 0 0 0 0 0 0 0 0 0 0 0 0 0 0 0 0 0 0 0 0 0 0 0 0 0 0 0 0 0 0 0 0 0 0 0 0 0 0 0
0 0 0 0 0 -0 -0 0 0 0 0 -0 -0 0 0 0 0 0 0 0 0 0 0 0 0 0 0 0 0 0 0 0 0 0 0 0 0 0 0 0 0 0 0
0 0 0 0 0 0 0 0 0 0 0 0 0 0 0 0 0 0 0 0 0 0 0 0 0 0 0 0 0 0 0 0 0 0 0 0 0 0 0 0 0 0 0
0 0 0 0 0 0 0 0 0 0 0 0 0 0 0 0 0 0 0 -0 0 0 0 0 0 0 0 0 0 0 0 0 0 0 0 0 0 0 0 0 0 0 0
0 0 0 0 0 0 0 0 0 0 0 0 0 0 0 0 0 0 0 0 0 0 0 0 0 0 0 0 0 0 0 0 0 0 0 0 0 0 0 0 0 0 0
0 0 0 0 0 0 0 0 0 0 0 0 0 0 0 0 0 0 0 0 0 0 0 0 0 0 0 0 0 0 0 0 0 0 0 0 0 0 0 0 0 0 0
0 0 0 0 0 0 0 0 0 0 0 0 0 0 0 0 0 0 0 0 0 0 0 0 0 0 0 0 0 0 0 0 0 0 0 0 0 0 0 0 0 0 0
0 0 0 0 0 0 0 0 0 0 0 0 0 0 0 0 0 0 0 0 0 0 0 0 0 0 0 0 0 0 0 0 0 0 0 0 0 0 0 0 0 0 0
0 0 0 0 0 0 0 0 0 0 0 0 0 0 0 0 0 0 0 0 0 0 0 0 0 0 0 0 0 0 0 0 0 0 0 0 0 0 0 0 0 0 0
0 0 0 0 0 0 0 0 0 0 0 0 0 0 0 0 0 0 0 0 0 0 0 0 0 0 0 0 0 0 0 0 0 0 0 0 0 0 0 0 0 0 0
Wind_Speed_500mb
28 21 18 17 22 25 24 19 15 11 9 6 9 11 16 20 18 15 10 13 10 12 17 18 19 19 14 12 14 15 17 18 18 17 16 18 19 20 21 21 22 24 26
18 15 14 14 15 24 23 22 18 16 14 15 15 19 21 20 16 10 6 12 19 18 16 15 17 15 12 8 8 12 15 18 17 17 19 21 22 24 26 23 21 23 26
19 13 11 11 15 23 19 17 15 11 9 12 14 14 12 13 9 5 10 16 20 17 17 22 14 14 8 7 7 13 16 17 19 19 24 26 26 28 27 19 17 19 25
17 10 9 10 14 12 8 11 7 6 10 9 3 6 9 3 3 7 10 15 20 20 14 17 14 10 14 9 9 15 20 19 17 20 26 30 30 28 20 13 14 20 28
11 9 8 10 8 5 4 8 6 4 8 11 7 7 6 2 4 8 12 17 21 26 12 12 15 13 14 15 18 22 25 16 18 23 29 32 26 18 11 9 12 20 27
12 11 11 13 10 6 3 9 9 3 11 12 8 4 2 5 11 14 18 19 22 27 16 8 9 18 8 18 25 22 18 17 18 24 29 24 16 11 8 10 17 23 29
14 15 16 20 15 11 7 8 11 5 9 10 12 12 11 15 20 21 24 22 24 21 15 12 8 7 9 16 20 18 20 22 23 26 27 22 17 15 13 17 23 28 27
21 18 20 16 20 18 13 14 7 7 9 6 9 16 17 20 24 26 25 23 23 20 13 12 11 7 5 12 19 22 27 28 25 25 24 21 17 14 15 21 26 27 26
17 17 18 21 19 24 24 19 17 13 13 10 11 6 7 9 19 21 23 21 16 21 10 4 2 8 5 8 16 24 33 32 26 25 22 19 18 19 22 25 25 26 27
14 18 12 13 22 28 31 23 22 20 18 17 14 13 11 8 7 11 13 8 14 20 2 2 7 7 5 10 15 24 32 32 27 21 18 18 19 22 24 24 26 26 26
19 22 20 14 11 21 24 25 22 23 23 21 18 16 14 12 11 9 10 10 10 16 15 11 11 8 8 17 14 21 28 31 26 22 21 20 20 21 23 26 27 27 28
22 26 27 24 14 18 20 20 19 19 22 21 22 14 13 12 9 9 10 13 13 13 17 15 16 13 14 14 14 18 24 31 27 22 19 19 20 21 23 25 27 29 29
25 22 25 26 22 20 23 26 18 17 19 21 21 18 16 13 15 13 14 17 17 17 17 17 13 15 13 14 14 16 21 28 25 21 20 19 19 21 24 26 27 25 24
30 25 23 27 28 24 24 25 25 22 20 21 21 21 20 18 18 18 19 18 19 23 20 19 19 18 15 15 15 16 20 25 23 19 19 20 22 23 22 21 22 23 23
37 35 29 28 25 30 25 27 28 29 29 26 23 24 25 24 25 24 22 22 20 23 26 23 22 20 20 19 19 17 20 22 20 17 18 20 21 19 20 21 21 22 23
40 37 39 33 29 25 26 24 26 29 31 29 30 30 26 26 28 24 21 22 22 24 26 22 22 21 21 19 20 23 25 23 20 17 19 19 17 16 18 19 20 20 19
38 33 36 36 34 30 34 33 31 32 31 28 28 28 30 30 31 30 28 29 25 22 25 26 26 25 23 21 24 29 29 26 23 22 21 20 14 13 14 16 18 18 18
45 44 41 41 40 39 46 50 38 31 32 31 31 32 29 30 33 35 34 30 29 29 29 30 31 28 29 29 31 33 31 30 28 28 26 23 22 17 16 14 16 17 16
52 48 46 46 42 36 30 38 40 37 36 35 35 37 35 35 38 35 35 36 33 34 34 34 31 31 31 34 38 37 36 35 35 33 32 31 29 26 19 16 19 20 19
56 54 50 48 43 42 40 40 43 42 43 45 42 40 40 40 38 39 42 39 36 37 37 39 37 37 35 36 39 43 46 45 43 39 40 38 37 35 29 23 17 18 16
60 60 58 54 51 49 49 47 49 49 48 45 42 40 40 40 38 38 41 40 40 40 38 39 40 41 44 44 44 42 42 43 46 46 46 44 42 42 40 29 18 15 12
68 63 61 63 57 56 51 52 52 51 51 47 46 44 44 42 42 41 40 37 37 38 40 41 42 45 43 42 42 44 43 42 49 49 50 49 46 45 42 33 25 16 11
61 66 64 62 66 64 59 51 47 47 47 48 46 46 43 43 41 38 36 35 35 37 37 38 41 41 42 40 41 41 39 42 48 52 51 43 42 47 44 38 29 19 7
56 57 59 58 57 57 55 52 51 49 48 52 52 49 46 39 41 44 41 39 38 38 39 40 41 41 41 39 36 37 40 41 44 47 50 49 45 51 45 41 34 28 24
57 60 60 61 63 59 59 61 56 53 54 53 48 50 49 46 43 47 47 46 44 42 41 41 43 44 43 41 40 39 35 32 40 44 45 50 48 43 41 42 38 30 21
46 50 60 61 62 63 58 59 56 54 58 55 55 53 53 54 53 49 47 47 45 42 41 44 44 45 42 40 38 36 33 31 33 40 39 43 45 37 38 46 31 23 15
Wind_Direction_500mb
130 124 113 107 127 145 146 137 129 134 134 88 71 65 80 99 103 105 74 36 30 3 354 354 0 19 28 45 50 50 40 25 14 8 9 360 351 343 331 316 316 322 326
142 135 126 125 123 149 146 145 135 129 110 84 94 98 96 107 113 97 39 18 1 7 349 342 353 26 37 49 42 22 19 12 9 0 358 351 341 332 331 322 317 324 332
151 141 132 133 126 145 157 152 168 170 136 105 92 99 123 122 100 51 4 3 0 4 16 23 15 32 32 32 24 5 358 354 352 343 340 341 337 331 329 323 321 325 329
156 145 154 159 155 143 154 166 185 192 210 153 110 126 126 88 29 2 1 11 4 353 12 16 13 7 21 355 358 360 356 346 339 332 334 334 334 332 333 333 334 336 337
178 185 194 197 184 233 197 213 243 265 193 189 175 128 94 76 335 346 351 348 345 354 353 359 4 3 3 0 346 354 350 358 353 338 334 331 333 339 343 346 345 340 341
212 208 226 237 239 219 266 250 272 158 158 188 196 170 156 285 303 312 327 333 340 348 358 353 4 358 12 7 2 5 12 20 4 345 343 348 2 6 5 3 352 349 348
213 226 247 242 244 234 228 243 279 239 198 206 235 240 261 281 290 294 303 318 329 329 327 316 328 345 20 18 14 20 11 8 360 7 9 16 23 14 14 2 352 350 353
225 237 236 253 246 241 234 223 226 206 203 229 232 247 272 282 285 287 289 301 315 337 339 298 295 292 357 17 24 22 7 2 357 13 22 22 13 5 355 349 351 354 357
207 225 241 247 245 240 234 228 223 220 228 239 245 225 257 266 304 300 282 283 313 328 304 328 3 327 246 5 9 14 8 3 5 12 19 16 4 352 347 348 354 357 357
236 218 223 226 237 229 231 239 237 232 232 239 248 243 253 289 310 316 327 323 323 354 345 147 357 313 269 327 356 6 7 3 10 11 8 4 356 346 347 352 356 356 356
244 228 222 229 236 217 222 234 241 243 239 242 249 254 252 274 292 327 12 12 3 11 32 16 350 323 274 304 333 357 1 4 8 7 5 1 360 350 353 354 355 352 353
249 235 223 223 247 227 222 223 229 231 222 231 241 241 234 241 275 297 328 335 341 344 345 351 352 337 293 290 305 340 349 357 357 2 4 2 0 354 354 352 350 351 353
244 236 235 233 244 236 231 223 227 230 237 231 229 234 242 256 269 284 302 315 320 323 322 329 322 327 302 283 298 316 336 349 353 353 356 357 359 353 351 350 353 354 354
246 251 256 241 233 237 229 225 231 236 242 249 243 242 252 256 265 272 288 302 310 310 313 319 311 307 300 276 285 294 318 335 342 346 348 350 349 344 345 348 350 356 1
244 245 249 247 251 232 229 232 234 242 247 250 251 252 252 260 268 272 278 284 295 301 310 315 301 303 302 283 279 281 299 313 326 328 336 341 346 345 343 349 353 359 1
239 247 244 245 242 236 236 244 251 251 252 256 256 256 261 259 266 272 279 281 281 279 281 297 293 290 302 297 275 285 289 298 305 309 319 328 335 341 343 347 351 353 355
234 236 231 236 240 244 237 249 260 255 248 256 262 265 262 264 268 275 280 279 277 278 281 288 284 283 288 291 283 285 286 289 288 289 297 307 314 326 337 345 346 346 349
241 239 238 240 245 254 254 246 251 258 252 258 260 265 269 263 266 273 276 277 268 270 279 286 287 287 283 285 281 279 284 278 279 281 281 288 290 300 310 326 334 334 338
244 244 241 238 246 248 254 242 249 257 257 259 263 265 263 265 262 264 269 272 279 274 276 277 283 285 287 282 278 278 282 280 279 275 271 274 277 281 276 291 316 327 328
246 246 244 249 251 245 253 251 253 258 259 259 265 265 259 261 263 264 263 268 269 272 276 275 276 280 286 288 280 277 275 277 273 275 275 275 276 271 262 276 294 309 315
247 248 252 252 253 254 253 251 259 264 264 262 262 259 258 260 263 264 264 263 264 268 273 274 274 275 279 285 286 288 283 275 268 270 271 269 269 267 267 266 262 275 285
246 248 250 251 252 254 256 257 258 263 263 260 259 260 262 258 259 264 263 264 262 268 273 276 277 279 285 288 287 285 278 271 269 277 276 272 268 263 261 254 238 235 240
246 249 251 252 251 257 255 254 254 259 259 257 258 264 260 257 256 259 264 264 265 268 273 277 279 283 284 285 284 283 275 273 276 278 275 274 269 258 247 242 228 208 168
244 247 249 251 250 253 254 252 254 256 258 256 256 260 260 258 255 256 261 263 265 270 275 277 279 282 285 285 281 279 279 278 275 272 268 265 262 246 231 227 225 197 170
246 246 249 254 252 252 257 256 255 251 255 257 257 258 262 263 259 256 258 263 266 270 275 276 277 280 281 281 282 281 278 275 273 272 271 261 251 239 221 217 214 207 163
264 253 249 249 251 250 256 255 252 255 259 261 260 258 263 265 267 264 259 262 266 275 278 278 276 274 274 275 277 281 282 278 276 274 263 239 243 238 204 216 214 190 172
Wind_Speed_850mb
28 21 18 17 22 25 24 19 15 11 9 6 9 11 16 20 18 15 10 13 10 12 17 18 19 19 14 12 14 15 17 18 18 17 16 18 19 20 21 21 22 24 26
18 15 14 14 15 24 23 22 18 16 14 15 15 19 21 20 16 10 6 12 19 18 16 15 17 15 12 8 8 12 15 18 17 17 19 21 22 24 26 23 21 23 26
19 13 11 11 15 23 19 17 15 11 9 12 14 14 12 13 9 5 10 16 20 17 17 22 14 14 8 7 7 13 16 17 19 19 24 26 26 28 27 19 17 19 25
17 10 9 10 14 12 8 11 7 6 10 9 3 6 9 3 3 7 10 15 20 20 14 17 14 10 14 9 9 15 20 19 17 20 26 30 30 28 20 13 14 20 28
11 9 8 10 8 5 4 8 6 4 8 11 7 7 6 2 4 8 12 17 21 26 12 12 15 13 14 15 18 22 25 16 18 23 29 32 26 18 11 9 12 20 27
12 11 11 13 10 6 3 9 9 3 11 12 8 4 2 5 11 14 18 19 22 27 16 8 9 18 8 18 25 22 18 17 18 24 29 24 16 11 8 10 17 23 29
14 15 16 20 15 11 7 8 11 5 9 10 12 12 11 15 20 21 24 22 24 21 15 12 8 7 9 16 20 18 20 22 23 26 27 22 17 15 13 17 23 28 27
21 18 20 16 20 18 13 14 7 7 9 6 9 16 17 20 24 26 25 23 23 20 13 12 11 7 5 12 19 22 27 28 25 25 24 21 17 14 15 21 26 27 26
17 17 18 21 19 24 24 19 17 13 13 10 11 6 7 9 19 21 23 21 16 21 10 4 2 8 5 8 16 24 33 32 26 25 22 19 18 19 22 25 25 26 27
14 18 12 13 22 28 31 23 22 20 18 17 14 13 11 8 7 11 13 8 14 20 2 2 7 7 5 10 15 24 32 32 27 21 18 18 19 22 24 24 26 26 26
19 22 20 14 11 21 24 25 22 23 23 21 18 16 14 12 11 9 10 10 10 16 15 11 11 8 8 17 14 21 28 31 26 22 21 20 20 21 23 26 27 27 28
22 26 27 24 14 18 20 20 19 19 22 21 22 14 13 12 9 9 10 13 13 13 17 15 16 13 14 14 14 18 24 31 27 22 19 19 20 21 23 25 27 29 29
25 22 25 26 22 20 23 26 18 17 19 21 21 18 16 13 15 13 14 17 17 17 17 17 13 15 13 14 14 16 21 28 25 21 20 19 19 21 24 26 27 25 24
30 25 23 27 28 24 24 25 25 22 20 21 21 21 20 18 18 18 19 18 19 23 20 19 19 18 15 15 15 16 20 25 23 19 19 20 22 23 22 21 22 23 23
37 35 29 28 25 30 25 27 28 29 29 26 23 24 25 24 25 24 22 22 20 23 26 23 22 20 20 19 19 17 20 22 20 17 18 20 21 19 20 21 21 22 23
40 37 39 33 29 25 26 24 26 29 31 29 30 30 26 26 28 24 21 22 22 24 26 22 22 21 21 19 20 23 25 23 20 17 19 19 17 16 18 19 20 20 19
38 33 36 36 34 30 34 33 31 32 31 28 28 28 30 30 31 30 28 29 25 22 25 26 26 25 23 21 24 29 29 26 23 22 21 20 14 13 14 16 18 18 18
45 44 41 41 40 39 46 50 38 31 32 31 31 32 29 30 33 35 34 30 29 29 29 30 31 28 29 29 31 33 31 30 28 28 26 23 22 17 16 14 16 17 16
52 48 46 46 42 36 30 38 40 37 36 35 35 37 35 35 38 35 35 36 33 34 34 34 31 31 31 34 38 37 36 35 35 33 32 31 29 26 19 16 19 20 19
56 54 50 48 43 42 40 40 43 42 43 45 42 40 40 40 38 39 42 39 36 37 37 39 37 37 35 36 39 43 46 45 43 39 40 38 37 35 29 23 17 18 16
60 60 58 54 51 49 49 47 49 49 48 45 42 40 40 40 38 38 41 40 40 40 38 39 40 41 44 44 44 42 42 43 46 46 46 44 42 42 40 29 18 15 12
68 63 61 63 57 56 51 52 52 51 51 47 46 44 44 42 42 41 40 37 37 38 40 41 42 45 43 42 42 44 43 42 49 49 50 49 46 45 42 33 25 16 11
61 66 64 62 66 64 59 51 47 47 47 48 46 46 43 43 41 38 36 35 35 37 37 38 41 41 42 40 41 41 39 42 48 52 51 43 42 47 44 38 29 19 7
56 57 59 58 57 57 55 52 51 49 48 52 52 49 46 39 41 44 41 39 38 38 39 40 41 41 41 39 36 37 40 41 44 47 50 49 45 51 45 41 34 28 24
57 60 60 61 63 59 59 61 56 53 54 53 48 50 49 46 43 47 47 46 44 42 41 41 43 44 43 41 40 39 35 32 40 44 45 50 48 43 41 42 38 30 21
46 50 60 61 62 63 58 59 56 54 58 55 55 53 53 54 53 49 47 47 45 42 41 44 44 45 42 40 38 36 33 31 33 40 39 43 45 37 38 46 31 23 15
Wind_Direction_850mb
130 124 113 107 127 145 146 137 129 134 134 88 71 65 80 99 103 105 74 36 30 3 354 354 0 19 28 45 50 50 40 25 14 8 9 360 351 343 331 316 316 322 326
142 135 126 125 123 149 146 145 135 129 110 84 94 98 96 107 113 97 39 18 1 7 349 342 353 26 37 49 42 22 19 12 9 0 358 351 341 332 331 322 317 324 332
151 141 132 133 126 145 157 152 168 170 136 105 92 99 123 122 100 51 4 3 0 4 16 23 15 32 32 32 24 5 358 354 352 343 340 341 337 331 329 323 321 325 329
156 145 154 159 155 143 154 166 185 192 210 153 110 126 126 88 29 2 1 11 4 353 12 16 13 7 21 355 358 360 356 346 339 332 334 334 334 332 333 333 334 336 337
178 185 194 197 184 233 197 213 243 265 193 189 175 128 94 76 335 346 351 348 345 354 353 359 4 3 3 0 346 354 350 358 353 338 334 331 333 339 343 346 345 340 341
212 208 226 237 239 219 266 250 272 158 158 188 196 170 156 285 303 312 327 333 340 348 358 353 4 358 12 7 2 5 12 20 4 345 343 348 2 6 5 3 352 349 348
213 226 247 242 244 234 228 243 279 239 198 206 235 240 261 281 290 294 303 318 329 329 327 316 328 345 20 18 14 20 11 8 360 7 9 16 23 14 14 2 352 350 353
225 237 236 253 246 241 234 223 226 206 203 229 232 247 272 282 285 287 289 301 315 337 339 298 295 292 357 17 24 22 7 2 357 13 22 22 13 5 355 349 351 354 357
207 225 241 247 245 240 234 228 223 220 228 239 245 225 257 266 304 300 282 283 313 328 304 328 3 327 246 5 9 14 8 3 5 12 19 16 4 352 347 348 354 357 357
236 218 223 226 237 229 231 239 237 232 232 239 248 243 253 289 310 316 327 323 323 354 345 147 357 313 269 327 356 6 7 3 10 11 8 4 356 346 347 352 356 356 356
244 228 222 229 236 217 222 234 241 243 239 242 249 254 252 274 292 327 12 12 3 11 32 16 350 323 274 304 333 357 1 4 8 7 5 1 360 350 353 354 355 352 353
249 235 223 223 247 227 222 223 229 231 222 231 241 241 234 241 275 297 328 335 341 344 345 351 352 337 293 290 305 340 349 357 357 2 4 2 0 354 354 352 350 351 353
244 236 235 233 244 236 231 223 227 230 237 231 229 234 242 256 269 284 302 315 320 323 322 329 322 327 302 283 298 316 336 349 353 353 356 357 359 353 351 350 353 354 354
246 251 256 241 233 237 229 225 231 236 242 249 243 242 252 256 265 272 288 302 310 310 313 319 311 307 300 276 285 294 318 335 342 346 348 350 349 344 345 348 350 356 1
244 245 249 247 251 232 229 232 234 242 247 250 251 252 252 260 268 272 278 284 295 301 310 315 301 303 302 283 279 281 299 313 326 328 336 341 346 345 343 349 353 359 1
239 247 244 245 242 236 236 244 251 251 252 256 256 256 261 259 266 272 279 281 281 279 281 297 293 290 302 297 275 285 289 298 305 309 319 328 335 341 343 347 351 353 355
234 236 231 236 240 244 237 249 260 255 248 256 262 265 262 264 268 275 280 279 277 278 281 288 284 283 288 291 283 285 286 289 288 289 297 307 314 326 337 345 346 346 349
241 239 238 240 245 254 254 246 251 258 252 258 260 265 269 263 266 273 276 277 268 270 279 286 287 287 283 285 281 279 284 278 279 281 281 288 290 300 310 326 334 334 338
244 244 241 238 246 248 254 242 249 257 257 259 263 265 263 265 262 264 269 272 279 274 276 277 283 285 287 282 278 278 282 280 279 275 271 274 277 281 276 291 316 327 328
246 246 244 249 251 245 253 251 253 258 259 259 265 265 259 261 263 264 263 268 269 272 276 275 276 280 286 288 280 277 275 277 273 275 275 275 276 271 262 276 294 309 315
247 248 252 252 253 254 253 251 259 264 264 262 262 259 258 260 263 264 264 263 264 268 273 274 274 275 279 285 286 288 283 275 268 270 271 269 269 267 267 266 262 275 285
246 248 250 251 252 254 256 257 258 263 263 260 259 260 262 258 259 264 263 264 262 268 273 276 277 279 285 288 287 285 278 271 269 277 276 272 268 263 261 254 238 235 240
246 249 251 252 251 257 255 254 254 259 259 257 258 264 260 257 256 259 264 264 265 268 273 277 279 283 284 285 284 283 275 273 276 278 275 274 269 258 247 242 228 208 168
244 247 249 251 250 253 254 252 254 256 258 256 256 260 260 258 255 256 261 263 265 270 275 277 279 282 285 285 281 279 279 278 275 272 268 265 262 246 231 227 225 197 170
246 246 249 254 252 252 257 256 255 251 255 257 257 258 262 263 259 256 258 263 266 270 275 276 277 280 281 281 282 281 278 275 273 272 271 261 251 239 221 217 214 207 163
264 253 249 249 251 250 256 255 252 255 259 261 260 258 263 265 267 264 259 262 266 275 278 278 276 274 274 275 277 281 282 278 276 274 263 239 243 238 204 216 214 190 172